Location: Contre
(49.7477°N, 2.0963°E)
Time: 21:58:30
(UTC+00:00)

Meteor 2-12 Rocket - Pass Details

Date: 12 August 2024
Orbit: 936 x 957 km, 82.5° (Epoch: 07 September)

Event Time Altitude Azimuth Distance (km) Brightness Sun altitude
Rises 01:07:25 0° 345° (NNW) 3,613 8.4 -23.5°
Reaches altitude 10° 01:09:59 10° 340° (NNW) 2,667 7.5 -23.4°
Maximum altitude 01:15:46 47° 269° (W) 1,234 4.8 -23.1°
Enters shadow 01:16:57 42° 237° (WSW) 1,326 4.8 -23.0°
